User: anonymous   Login
Location: Auckland
(36.8670°S, 174.7670°E)
Time: 04:28:02
(UTC+13:00)
Language:

Cosmos 2208 Rocket - Orbit

View from above orbital plane
View from above orbital plane
View from above satellite
View from above satellite

Ground track
Ground track

The orbit data is extracted from the following two-line orbital elements,

1 22081U 92053B   19077.28724239  .00000014  00000-0  14167-4 0  9991
2 22081  74.0462 349.7124 0035824 164.2301 195.9976 14.33441900390419
Epoch (UTC): 18 March 2019 06:53:37
Eccentricity: 0.0035824
inclination: 74.0462°
perigee height: 754 km
apogee height: 806 km
right ascension of ascending node: 349.7124°
argument of perigee: 164.2301°
revolutions per day: 14.33441900
mean anomaly at epoch: 195.9976°
orbit number at epoch: 39041

The dashed part of the orbit path shows where the satellite is in the earth's shadow,  

DLR